Location: Augirein
(42.9320°N, 0.9181°E)
Time: 00:49:36
(UTC+00:00)

Cosmos 2082 Rocket - Pass Details

Date: 20 June 2021
Orbit: 832 x 855 km, 71.0° (Epoch: 04 August)

Event Time Altitude Azimuth Distance (km) Brightness Sun altitude
Rises 03:02:41 0° 166° (SSE) 3,362 5.0 -11.2°
Reaches altitude 10° 03:05:33 10° 152° (SSE) 2,433 4.4 -10.8°
Maximum altitude 03:09:51 23° 101° (ESE) 1,689 4.2 -10.3°
Drops below altitude 10° 03:14:10 10° 51° (NE) 2,447 6.2 -9.7°
Sets 03:17:03 0° 37° (NE) 3,388 7.5 -9.4°
